[[{"header":{"parameterUnit":"m.s-1","parameterCategory":1,"la1":30.2991,"la2":30.254,"lo1":-89.0895,"lo2":-89.0444,"dy":0.0017,"dx":0.0017,"nx":28,"ny":28,"refTime":"2025-02-10T03:00:00:Z","depth":0,"parameterNumber":2,"parameterNumberName":"U-component_of_WINDS"},"data":[0,0,0,0,0,0,0,0,0,0,0,0,0,0,0,0,0,0,0,0,0,0,0,0,0,0,0,0,0,0,0,0,0,0,0,0,0,0,0,0,0,0,0,0,0,0,0,0,0,0,0,0,0,0,0,0,0,0,-1.0304,-1.0303,0,-1.0225,-1.0224,-1.0223,-1.0164,-1.0163,-1.0162,-1.0162,-1.0079,-1.0077,-1.0075,0,0,0,0,0,0,0,0,0,0,0,0,0,-1.0403,-1.0402,-1.0304,-1.0303,-1.0302,-1.0225,-1.0224,-1.0223,-1.0164,-1.0163,-1.0162,-1.0162,-1.0079,-1.0077,-1.0075,0,0,0,0,0,0,0,0,0,0,0,0,0,-1.0346,-1.0401,-1.0304,-1.0263,-1.0259,-1.0225,-1.0224,-1.0222,-1.0164,-1.0163,-1.0162,-1.0161,-1.008,-1.0078,-1.0075,-1.0075,0,0,-1.0067,-1.0066,0,0,0,0,0,0,0,0,-1.0349,-1.0342,-1.027,-1.0266,-1.0261,-1.0203,-1.0228,-1.0173,-1.0164,-1.02,-1.0162,-1.0161,-1.0121,-1.0115,-1.0102,-1.0071,-1.0067,-1.0067,-1.0065,-1.0064,-1.0063,0,0,0,0,0,0,0,-1.0353,-1.0345,-1.0273,-1.027,-1.0264,-1.0249,-1.024,-1.0217,-1.0166,-1.0197,-1.0192,-1.0184,-1.0118,-1.0104,-1.0099,-1.0066,-1.0067,-1.0065,-1.0063,-1.0062,-1.0031,-1.0032,0,0,0,0,0,0,-1.0364,-1.0349,-1.0275,-1.027,-1.0304,-1.0247,-1.0237,-1.0223,-1.0166,-1.0156,-1.0184,-1.0181,-1.0109,-1.0102,-1.0096,-1.0092,-1.0064,-1.0062,-1.006,-1.0031,-1.0031,-1.0032,0,0,0,0,0,0,-1.0366,-1.0358,-1.0278,-1.0308,-1.0297,-1.0247,-1.0231,-1.0221,-1.0208,-1.0157,-1.0147,-1.018,-1.0108,-1.01,-1.0081,-1.0088,-1.0061,-1.0058,-1.003,-1.0031,-1.0032,-1.0084,0,0,0,0,0,0,-1.0369,-1.0359,-1.0359,-1.0309,-1.0296,-1.0265,-1.0231,-1.0221,-1.0203,-1.0199,-1.015,-1.0141,-1.0107,-1.0085,-1.0078,-1.0084,-1.0056,-1.0029,-1.003,-1.0032,-1.0081,-1.0087,-1.0092,0,0,0,0,0,-1.0373,-1.0376,-1.0359,-1.035,-1.0295,-1.0266,-1.0258,-1.0219,-1.0204,-1.0203,-1.0171,-1.0142,-1.0089,-1.0083,-1.0075,-1.0081,-1.0028,-1.003,-1.0031,-1.0079,-1.0086,-1.0091,0,0,0,0,0,0,-1.0428,-1.0369,-1.0349,-1.0337,-1.0307,-1.0256,-1.0253,-1.0228,-1.0201,-1.0197,-1.015,-1.0139,-1.0125,-1.0101,-1.0096,-1.0078,-1.0055,-1.0055,-1.0094,-1.01,-1.0105,-1.0111,-1.0054,0,0,0,0,0,-1.0438,-1.042,-1.037,-1.0364,-1.035,-1.0304,-1.029,-1.0263,-1.023,-1.0217,-1.0183,-1.0151,-1.0127,-1.0112,-1.0087,-1.0078,-1.0066,-1.0078,-1.0083,-1.0087,-1.0087,-1.0081,-1.0085,-1.0038,-1.0038,-1.0038,0,0,-1.046,-1.0426,-1.0417,-1.0374,-1.0347,-1.0329,-1.0294,-1.0276,-1.0262,-1.0214,-1.0194,-1.0168,-1.0129,-1.0116,-1.0108,-1.0095,-1.0098,-1.0089,-1.0093,-1.0091,-1.0083,-1.0087,-1.0091,-1.0039,-1.0039,-1.0038,0,0,-1.049,-1.0463,-1.0455,-1.0429,-1.039,-1.036,-1.0358,-1.0311,-1.0292,-1.0271,-1.0235,-1.0217,-1.0177,-1.0151,-1.0132,-1.0153,-1.0126,-1.0147,-1.0172,-1.0166,-1.017,-1.0173,-1.018,-1.0183,-1.0147,-1.0147,-1.0147,0,-1.0522,-1.0494,-1.0453,-1.0438,-1.042,-1.0376,-1.0367,-1.0344,-1.0298,-1.0287,-1.0273,-1.0222,-1.0193,-1.0172,-1.0177,-1.0164,-1.016,-1.0152,-1.0173,-1.0176,-1.0178,-1.0184,-1.0187,-1.015,-1.015,-1.015,-1.0149,0,-1.0535,-1.0516,-1.0514,-1.0472,-1.0453,-1.0441,-1.0398,-1.0385,-1.0359,-1.0331,-1.031,-1.0274,-1.0241,-1.0234,-1.0209,-1.021,-1.0203,-1.0182,-1.0158,-1.0186,-1.0191,-1.0193,-1.0154,-1.0153,-1.0152,-1.0152,0,0,-1.0597,-1.0533,-1.0533,-1.0513,-1.0467,-1.0451,-1.0437,-1.0405,-1.0394,-1.0364,-1.0351,-1.0318,-1.0298,-1.0278,-1.0249,-1.0244,-1.0262,-1.0223,-1.0221,-1.0231,-1.0261,-1.0277,-1.028,-1.0244,-1.0245,-1.0245,-1.0264,0,-1.062,-1.0593,-1.0556,-1.0541,-1.0523,-1.0481,-1.0468,-1.0438,-1.0411,-1.0391,-1.0361,-1.0338,-1.0314,-1.0301,-1.0294,-1.0262,-1.0268,-1.026,-1.0231,-1.023,-1.0242,-1.0283,-1.03,-1.0319,-1.0266,-1.0266,-1.0266,0,-1.0643,-1.0616,-1.06,-1.0555,-1.0545,-1.0535,-1.0503,-1.0485,-1.045,-1.043,-1.0408,-1.0377,-1.0359,-1.0338,-1.0313,-1.0309,-1.0295,-1.0277,-1.0277,-1.0272,-1.025,-1.0279,-1.0325,-1.0328,-1.0269,-1.0269,-1.0269,0,-1.069,-1.065,-1.0634,-1.0619,-1.0566,-1.056,-1.0537,-1.0501,-1.0485,-1.0457,-1.0445,-1.0415,-1.0399,-1.0376,-1.0338,-1.0326,-1.0317,-1.0293,-1.03,-1.0301,-1.0299,-1.03,-1.0343,-1.0291,-1.0291,-1.0291,-1.0291,0,-1.072,-1.0711,-1.0655,-1.0645,-1.0634,-1.0592,-1.0582,-1.0556,-1.0524,-1.0509,-1.047,-1.0456,-1.0407,-1.0387,-1.0357,-1.0341,-1.0334,-1.0317,-1.0309,-1.0321,-1.0323,-1.031,-1.0308,-1.0292,-1.0292,-1.0292,-1.0291,0,-1.077,-1.0732,-1.0713,-1.0665,-1.0652,-1.0646,-1.0605,-1.0594,-1.0564,-1.0545,-1.0538,-1.0492,-1.0467,-1.0427,-1.0389,-1.0369,-1.0358,-1.0345,-1.037,-1.0365,-1.0374,-1.0374,-1.0411,-1.0413,-1.0361,-1.0361,-1.0362,0,-1.0791,-1.0784,-1.0735,-1.0722,-1.0701,-1.0681,-1.0664,-1.0622,-1.0605,-1.0565,-1.0559,-1.0531,-1.0506,-1.0467,-1.043,-1.0401,-1.0387,-1.0402,-1.0382,-1.0394,-1.0387,-1.0388,-1.0387,-1.0406,-1.0407,-1.0408,-1.0408,0,-1.0833,-1.0815,-1.0792,-1.0762,-1.0743,-1.0718,-1.069,-1.0682,-1.0634,-1.0617,-1.0591,-1.0572,-1.0534,-1.0506,-1.0472,-1.0449,-1.042,-1.0415,-1.0415,-1.0426,-1.0441,-1.0433,-1.0382,-1.0414,-1.0414,-1.0413,-1.0413,-1.0413,-1.0869,-1.0861,-1.0825,-1.0801,-1.0776,-1.0751,-1.0739,-1.0708,-1.0686,-1.0652,-1.0628,-1.0604,-1.0568,-1.052,-1.0498,-1.0477,-1.0465,-1.0465,-1.0465,-1.0466,-1.047,-1.0445,-1.0471,-1.0471,-1.0471,-1.047,-1.047,0,-1.0909,-1.0884,-1.0862,-1.0825,-1.0806,-1.0782,-1.075,-1.0736,-1.0715,-1.0685,-1.0661,-1.0631,-1.0604,-1.0565,-1.0535,-1.0526,-1.0512,-1.052,-1.052,-1.0515,-1.0483,-1.0486,-1.0531,-1.0531,-1.0531,-1.0531,-1.0531,-1.0531,-1.0927,-1.0911,-1.0889,-1.086,-1.0835,-1.0811,-1.0795,-1.0772,-1.0747,-1.0716,-1.0693,-1.0668,-1.0634,-1.0601,-1.0575,-1.0564,-1.0555,-1.0566,-1.0552,-1.0523,-1.0517,-1.0512,-1.0514,-1.0565,-1.0565,-1.0585,-1.0585,-1.0585]},{"header":{"parameterUnit":"m.s-1","parameterCategory":1,"la1":30.2991,"la2":30.254,"lo1":-89.0895,"lo2":-89.0444,"dy":0.0017,"dx":0.0017,"nx":28,"ny":28,"refTime":"2025-02-10T03:00:00:Z","depth":0,"parameterNumber":3,"parameterNumberName":"V-component_of_WINDS"},"data":[0,0,0,0,0,0,0,0,0,0,0,0,0,0,0,0,0,0,0,0,0,0,0,0,0,0,0,0,0,0,0,0,0,0,0,0,0,0,0,0,0,0,0,0,0,0,0,0,0,0,0,0,0,0,0,0,0,0,3.0492,3.0492,0,3.051,3.051,3.051,3.0507,3.0506,3.0506,3.0506,3.0521,3.0522,3.0522,0,0,0,0,0,0,0,0,0,0,0,0,0,3.0452,3.0453,3.0491,3.0492,3.0492,3.051,3.051,3.051,3.0507,3.0506,3.0506,3.0505,3.0521,3.0522,3.0522,0,0,0,0,0,0,0,0,0,0,0,0,0,3.047,3.0453,3.0491,3.0492,3.0493,3.051,3.051,3.051,3.0507,3.0506,3.0506,3.0505,3.052,3.0521,3.0522,3.0539,0,0,3.0526,3.0526,0,0,0,0,0,0,0,0,3.0469,3.0471,3.0492,3.0492,3.0493,3.0506,3.0502,3.052,3.0507,3.0501,3.0506,3.0505,3.0516,3.0517,3.0522,3.054,3.054,3.0526,3.0526,3.0527,3.0527,0,0,0,0,0,0,0,3.0468,3.047,3.0499,3.0492,3.0493,3.0492,3.0494,3.0505,3.0511,3.0502,3.0501,3.0504,3.0516,3.0521,3.0522,3.054,3.0526,3.0527,3.0527,3.0528,3.0576,3.0576,0,0,0,0,0,0,3.0466,3.0469,3.0498,3.0499,3.0479,3.0493,3.0495,3.0502,3.0511,3.0512,3.0504,3.0504,3.0519,3.0521,3.0523,3.0544,3.0527,3.0528,3.0529,3.0575,3.0576,3.0577,0,0,0,0,0,0,3.0466,3.0469,3.0497,3.0484,3.0488,3.0494,3.0502,3.0502,3.0507,3.0513,3.0514,3.0508,3.0519,3.0521,3.0536,3.0545,3.0528,3.0529,3.0574,3.0575,3.0576,3.0587,0,0,0,0,0,0,3.0464,3.0469,3.0475,3.0485,3.0489,3.051,3.0502,3.0503,3.0509,3.0509,3.0517,3.0518,3.0519,3.0534,3.0537,3.0546,3.053,3.0574,3.0575,3.0576,3.0586,3.0588,3.059,0,0,0,0,0,3.0463,3.0476,3.0475,3.0479,3.0497,3.0511,3.0513,3.0515,3.051,3.0517,3.0521,3.0517,3.0544,3.0536,3.0539,3.0548,3.0573,3.0575,3.0576,3.0585,3.0588,3.059,0,0,0,0,0,0,3.0465,3.0477,3.0476,3.0493,3.0501,3.051,3.0518,3.0518,3.0527,3.0525,3.0527,3.0529,3.0544,3.0547,3.0539,3.0566,3.0558,3.056,3.0563,3.0566,3.0568,3.0567,3.0531,0,0,0,0,0,3.0467,3.0479,3.0488,3.0502,3.0506,3.0512,3.0518,3.0519,3.0527,3.0531,3.0536,3.0543,3.0553,3.056,3.0569,3.0586,3.0589,3.0595,3.0597,3.0599,3.06,3.0612,3.0615,3.0581,3.0581,3.0581,0,0,3.0472,3.048,3.0487,3.0502,3.0509,3.0521,3.0515,3.0526,3.0535,3.0532,3.0547,3.0551,3.056,3.0577,3.0584,3.058,3.0611,3.06,3.0602,3.0602,3.0614,3.0617,3.062,3.0582,3.0582,3.0582,0,0,3.0487,3.0494,3.0507,3.0515,3.0526,3.053,3.0534,3.0544,3.0547,3.0563,3.0561,3.0572,3.0589,3.0596,3.0601,3.0623,3.0621,3.0626,3.0637,3.0649,3.0651,3.0654,3.0663,3.0666,3.0628,3.0628,3.0628,0,3.0491,3.0509,3.0513,3.0527,3.0534,3.0535,3.0548,3.0555,3.0568,3.0574,3.0569,3.0593,3.0598,3.0618,3.0624,3.0628,3.0632,3.0625,3.0651,3.0653,3.0656,3.0664,3.0668,3.0629,3.0629,3.0629,3.0628,0,3.0515,3.0528,3.0537,3.0552,3.0561,3.0574,3.0581,3.0589,3.0591,3.0596,3.0613,3.062,3.0632,3.0637,3.0637,3.0658,3.0655,3.0651,3.0642,3.066,3.0668,3.0671,3.063,3.0629,3.0629,3.0629,0,0,3.0528,3.0549,3.0552,3.0561,3.0575,3.0585,3.0599,3.0613,3.0621,3.0631,3.0643,3.0659,3.0657,3.0664,3.0665,3.0675,3.0694,3.067,3.067,3.0675,3.0719,3.0723,3.0726,3.0693,3.0694,3.0694,3.0719,0,3.0546,3.0572,3.0578,3.0601,3.0614,3.0616,3.0629,3.0639,3.0644,3.0656,3.0662,3.0674,3.0669,3.0674,3.0684,3.069,3.0703,3.0688,3.0705,3.0706,3.0703,3.0731,3.0734,3.0756,3.0722,3.0723,3.0723,0,3.0568,3.0582,3.0606,3.0622,3.0628,3.0639,3.0654,3.0665,3.0677,3.0681,3.0691,3.0692,3.0708,3.0699,3.0721,3.0711,3.0718,3.0723,3.0724,3.0725,3.0715,3.0734,3.0763,3.0767,3.0728,3.0728,3.0727,0,3.0577,3.0601,3.062,3.0627,3.0645,3.0654,3.0661,3.0673,3.0683,3.0695,3.0702,3.0715,3.0723,3.0734,3.0739,3.0732,3.0762,3.0753,3.0765,3.0765,3.0771,3.0771,3.0803,3.0775,3.0775,3.0775,3.0775,0,3.0596,3.0611,3.0625,3.0636,3.0654,3.0662,3.0679,3.0687,3.0698,3.0711,3.0713,3.0726,3.0732,3.0745,3.075,3.0769,3.0771,3.0775,3.0776,3.0775,3.0775,3.078,3.0779,3.0776,3.0776,3.0776,3.0775,0,3.0608,3.0618,3.0639,3.0656,3.0661,3.0674,3.0688,3.07,3.0707,3.0724,3.0728,3.0739,3.0755,3.0762,3.0781,3.0784,3.0806,3.0805,3.0803,3.0803,3.0816,3.0815,3.0853,3.0859,3.0826,3.0827,3.0827,0,3.0619,3.0632,3.0652,3.0662,3.067,3.0686,3.0696,3.0705,3.0715,3.0733,3.0742,3.0759,3.0773,3.0799,3.0808,3.0824,3.0824,3.0837,3.0826,3.0826,3.0826,3.0825,3.0827,3.0838,3.0838,3.0839,3.0839,0,3.0639,3.0644,3.0659,3.0678,3.0691,3.0705,3.0719,3.0727,3.0738,3.075,3.0768,3.0779,3.0801,3.0818,3.0834,3.0842,3.0843,3.0843,3.0846,3.0846,3.0844,3.0846,3.0808,3.0841,3.0841,3.0841,3.0841,3.0841,3.0651,3.0664,3.0681,3.0699,3.0711,3.0725,3.0737,3.0748,3.0763,3.0783,3.0787,3.0807,3.0821,3.0844,3.0853,3.0869,3.0865,3.087,3.0872,3.0873,3.0875,3.0842,3.0871,3.0871,3.0871,3.0871,3.0871,0,3.0671,3.0683,3.07,3.0721,3.0736,3.0738,3.0754,3.0766,3.0784,3.0799,3.0814,3.0836,3.0853,3.0866,3.0883,3.0894,3.0895,3.0898,3.0897,3.09,3.0876,3.0871,3.0897,3.0897,3.0897,3.0897,3.0897,3.0897,3.0684,3.0705,3.0713,3.0742,3.0754,3.0774,3.0784,3.0797,3.0809,3.0835,3.085,3.0859,3.0873,3.0893,3.0909,3.0913,3.0919,3.0923,3.0926,3.0904,3.0901,3.0898,3.0894,3.0925,3.0925,3.0949,3.0949,3.0949]}]]